Location: Fouquenies
(49.4624°N, 2.0492°E)
Time: 10:35:59
(UTC+00:00)

BlueWalker 3 - Pass Details

Date: 03 February 2023
Orbit: 497 x 515 km, 53.2° (Epoch: 23 March)

Event Time Altitude Azimuth Distance (km) Brightness Sun altitude
Rises 18:29:47 0° 280° (W) 2,601 7.1 -16.3°
Reaches altitude 10° 18:32:01 10° 286° (WNW) 1,720 5.7 -16.7°
Maximum altitude 18:35:48 47° 1° (N) 682 2.5 -17.3°
Enters shadow 18:36:57 35° 49° (NE) 836 2.6 -17.5°
